Needles, CA

11:08 PM PDT on July 24, 2016 (GMT -0700)
Needles

Weather History for KEED - May, 2013

Change the Weather History Date:

Wednesday, May 8, 2013

  Actual Average Record
Temperature  
Mean Temperature 72 °F 79 °F  
Max Temperature 86 °F 93 °F 111 °F (1923)
Min Temperature 61 °F 66 °F 44 °F (1964)
Degree Days  
Heating Degree Days 0    
Cooling Degree Days 8    
Growing Degree Days 22 (Base 50)    
Moisture  
Dew Point 36 °F    
Average Humidity 26    
Maximum Humidity 44    
Minimum Humidity 15    
Precipitation  
Precipitation 0.00 in 0.00 in 0.30 in (1917)
Month to date precipitation 0.03  
Year to date precipitation 2.29  
Sea Level Pressure  
Sea Level Pressure 29.88 in    
Wind  
Wind Speed 5 mph (SW)    
Max Wind Speed 12 mph    
Max Gust Speed 20 mph    
Visibility 10 miles    
Events      
T = Trace of Precipitation, MM = Missing Value Source: NWS Daily Summary

Daily Weather History Graph

Daily Weather History Graph

Search for Another Location

Airport or City:

Trip Planner

Search our weather history database for the weather conditions in past years. The results will help you decide how hot, cold, wet, or windy it might be!

Date:

Astronomy

May. 08, 2013 Rise Set
Actual Time 5:40 AM PDT 7:29 PM PDT
Civil Twilight 5:13 AM PDT 7:57 PM PDT
Nautical Twilight 4:40 AM PDT 8:30 PM PDT
Astronomical Twilight 4:04 AM PDT 9:05 PM PDT
Moon 4:48 AM PDT (5/8) 6:33 PM PDT (5/8)
Length of Visible Light 14h 43m
Length of Day
13h 48m
Waning Crescent, 1% of the Moon is Illuminated
May 8
Waning Crescent
May 9
New
May 17
First Quarter
May 24
Full
May 31
Last Quarter

Hourly Weather History & Observations

Time (PDT) Temp. Dew Point Humidity Pressure Visibility Wind Dir Wind Speed Gust Speed Precip Events Conditions
12:56 AM 68.0 °F 37.0 °F 32% 29.85 in 10.0 mi WSW 8.1 mph - N/A   Clear
1:56 AM 68.0 °F 37.9 °F 33% 29.86 in 10.0 mi Variable 3.5 mph - N/A   Clear
2:56 AM 64.9 °F 37.0 °F 36% 29.87 in 10.0 mi Calm Calm - N/A   Clear
3:56 AM 62.1 °F 37.9 °F 41% 29.89 in 10.0 mi Calm Calm - N/A   Clear
4:56 AM 61.0 °F 37.0 °F 41% 29.90 in 10.0 mi Calm Calm - N/A   Clear
5:56 AM 61.0 °F 39.0 °F 44% 29.91 in 10.0 mi WNW 5.8 mph - N/A   Clear
6:56 AM 64.9 °F 39.0 °F 39% 29.93 in 10.0 mi West 5.8 mph - N/A   Clear
7:56 AM 69.1 °F 39.0 °F 33% 29.94 in 10.0 mi NNE 4.6 mph - N/A   Clear
8:56 AM 71.1 °F 39.9 °F 32% 29.94 in 10.0 mi ENE 3.5 mph - N/A   Clear
9:56 AM 73.9 °F 39.9 °F 29% 29.95 in 10.0 mi ESE 4.6 mph - N/A   Clear
10:56 AM 77.0 °F 39.0 °F 25% 29.94 in 10.0 mi Calm Calm - N/A   Clear
11:56 AM 80.1 °F 39.0 °F 23% 29.92 in 10.0 mi SE 3.5 mph - N/A   Clear
12:56 PM 81.0 °F 37.9 °F 21% 29.90 in 10.0 mi Variable 6.9 mph - N/A   Clear
1:56 PM 82.0 °F 36.0 °F 19% 29.88 in 10.0 mi Variable 4.6 mph - N/A   Clear
2:56 PM 84.9 °F 34.0 °F 16% 29.85 in 10.0 mi South 11.5 mph 19.6 mph N/A   Clear
3:56 PM 84.0 °F 30.9 °F 15% 29.83 in 10.0 mi Variable 4.6 mph 18.4 mph N/A   Clear
4:56 PM 84.0 °F 32.0 °F 15% 29.82 in 10.0 mi Calm Calm - N/A   Clear
5:56 PM 84.9 °F 33.1 °F 16% 29.81 in 10.0 mi South 10.4 mph - N/A   Clear
6:56 PM 82.9 °F 34.0 °F 17% 29.81 in 10.0 mi SSW 5.8 mph - N/A   Clear
7:56 PM 81.0 °F 34.0 °F 18% 29.82 in 10.0 mi SW 10.4 mph - N/A   Clear
8:56 PM 79.0 °F 32.0 °F 18% 29.84 in 10.0 mi SW 10.4 mph - N/A   Clear
9:56 PM 77.0 °F 32.0 °F 19% 29.86 in 10.0 mi West 9.2 mph - N/A   Clear
10:56 PM 75.9 °F 32.0 °F 20% 29.85 in 10.0 mi WSW 9.2 mph - N/A   Clear